Location: ??????
(31.2056°N, 45.3906°E)
Time: 19:36:58
(UTC+00:00)

USA 234 - Pass Details

Date: 09 April 2020
Orbit: 1102 x 1106 km, 123.0° (Epoch: 14 May)

Event Time Altitude Azimuth Distance (km) Brightness Sun altitude
Rises 18:05:27 0° 35° (NE) 3,921 6.2 -32.8°
Reaches altitude 10° 18:08:00 10° 31° (NNE) 2,961 5.5 -33.2°
Maximum altitude 18:14:17 51° 318° (NW) 1,356 3.9 -34.3°
Drops below altitude 10° 18:20:33 10° 244° (WSW) 2,955 5.7 -35.4°
Sets 18:23:05 0° 239° (WSW) 3,911 6.4 -35.8°
